6hr Temperature Data

Temp.
(°C)
Wind Chill
(°C)
Dew Point
(°C)
Solar Hours
(hh:mm)
Solar Radiation
(w/m2)
Min
13.6 12.2 5.8 06:02 0.0
Max
19.4 19.8 10.5 07:50 360.0
Range
5.8 7.6 4.7 n/a 360
Mode
14.2 12.9 9.4 07:50 6.0
Median
18.2 18 8.8 07:48 58.0
Mean
16.6 16.1 8.6 n/a 89.2
Std. Dev
2.6 3.2 1.2 n/a 81
Temp.
(°C)
Wind Chill
(°C)
Dew Point
(°C)
Solar Hours
(hh:mm)
Solar Radiation
(w/m2)
26/07 20:30 14.1 12.8 9.3 07:50 0.0
26/07 20:28 14.1 12.9 9.5 07:50 0.0
26/07 20:27 14.1 12.9 9.5 07:50 0.0
26/07 20:26 14.1 12.9 9.5 07:50 0.0
26/07 20:25 14.0 12.8 9.4 07:50 0.0
26/07 20:24 14.0 12.8 9.4 07:50 0.0
26/07 20:23 14.1 13 9.5 07:50 0.0
26/07 20:22 14.1 13 9.5 07:50 4.0
26/07 20:21 14.1 13.1 9.5 07:50 4.0
26/07 20:20 14.0 12.9 9.4 07:50 4.0
26/07 20:19 14.0 12.9 9.4 07:50 4.0
26/07 20:18 14.0 12.9 9.4 07:50 0.0
26/07 20:17 14.0 12.9 9.4 07:50 4.0
26/07 20:16 14.0 12.9 9.4 07:50 4.0
26/07 20:15 14.0 12.9 9.4 07:50 4.0
26/07 20:14 14.0 12.9 9.4 07:50 4.0
26/07 20:13 14.0 12.9 9.4 07:50 4.0
26/07 20:12 14.0 12.9 9.4 07:50 4.0
26/07 20:11 14.0 12.9 9.4 07:50 6.0
26/07 20:10 14.1 13 9.5 07:50 6.0
26/07 20:09 14.0 12.8 9.4 07:50 6.0
26/07 20:08 14.1 13 9.5 07:50 6.0
26/07 20:07 14.1 13 9.5 07:50 4.0
26/07 20:06 14.1 13 9.5 07:50 4.0
26/07 20:05 14.1 12.9 9.3 07:50 4.0
26/07 20:04 14.1 12.9 9.3 07:50 4.0
26/07 20:03 14.1 12.9 9.3 07:50 4.0
26/07 20:02 14.1 12.9 9.3 07:50 6.0
26/07 20:01 14.1 12.9 9.3 07:50 6.0
26/07 20:00 14.1 12.9 9.3 07:50 6.0
26/07 19:59 14.1 12.9 9.3 07:50 6.0
26/07 19:58 14.1 12.9 9.3 07:50 6.0
26/07 19:57 14.2 13 9.4 07:50 6.0
26/07 19:56 14.2 13 9.4 07:50 6.0
26/07 19:55 14.2 12.9 9.4 07:50 6.0
26/07 19:54 14.2 12.9 9.2 07:50 6.0
26/07 19:53 14.2 12.9 9.2 07:50 6.0
26/07 19:52 14.2 13 9.2 07:50 8.0
26/07 19:51 14.2 13 9.2 07:50 14.0
26/07 19:50 14.2 13 9.2 07:50 14.0
26/07 19:49 14.3 13.2 9.3 07:50 16.0
26/07 19:48 14.2 13.1 9.2 07:50 16.0
26/07 19:47 14.2 13.1 9.2 07:50 16.0
26/07 19:46 14.2 13.1 9.2 07:50 16.0
26/07 19:45 14.2 13.1 9.2 07:50 16.0
26/07 19:44 14.2 13.2 9.2 07:50 16.0
26/07 19:43 14.2 13.2 9.2 07:50 18.0
26/07 19:42 14.2 13.2 9.4 07:50 18.0
26/07 19:41 14.2 13.2 9.4 07:50 20.0
26/07 19:40 14.2 13.1 9.4 07:50 20.0
26/07 19:39 14.2 13.1 9.4 07:50 20.0
26/07 19:38 14.2 13.1 9.2 07:50 22.0
26/07 19:37 14.2 13.1 9.4 07:50 22.0
26/07 19:36 14.2 13 9.4 07:50 22.0
26/07 19:35 14.2 13 9.2 07:50 24.0
26/07 19:34 14.2 13 9.2 07:50 24.0
26/07 19:33 14.2 12.9 9.4 07:50 24.0
26/07 19:32 14.2 12.9 9.2 07:50 24.0
26/07 19:31 14.2 12.9 9.2 07:50 26.0
26/07 19:30 14.2 12.9 9.2 07:50 26.0
26/07 19:29 14.2 12.9 9.2 07:50 26.0
26/07 19:28 14.2 12.9 9.4 07:50 28.0
26/07 19:27 14.2 12.9 9.2 07:50 28.0
26/07 19:26 14.2 12.9 9.4 07:50 28.0
26/07 19:25 14.1 12.8 9.3 07:50 28.0
26/07 19:24 14.1 12.8 9.3 07:50 30.0
26/07 19:23 14.0 12.7 9.2 07:50 30.0
26/07 19:22 14.1 12.8 9.5 07:50 30.0
26/07 19:21 14.0 12.7 9.4 07:50 32.0
26/07 19:20 14.0 12.7 9.4 07:50 32.0
26/07 19:19 14.0 12.7 9.4 07:50 32.0
26/07 19:18 13.9 12.5 9.3 07:50 32.0
26/07 19:17 13.9 12.6 9.3 07:50 34.0
26/07 19:16 13.9 12.6 9.5 07:50 36.0
26/07 19:15 13.9 12.6 9.7 07:50 36.0
26/07 19:14 13.9 12.6 9.7 07:50 38.0
26/07 19:13 13.8 12.4 9.6 07:50 38.0
26/07 19:12 13.8 12.4 9.6 07:50 38.0
26/07 19:11 13.8 12.4 9.6 07:50 40.0
26/07 19:10 13.8 12.4 9.6 07:50 40.0
26/07 19:09 13.8 12.4 9.6 07:50 42.0
26/07 19:08 13.8 12.4 9.6 07:50 42.0
26/07 19:07 13.8 12.4 9.6 07:50 44.0
26/07 19:06 13.8 12.4 9.8 07:50 46.0
26/07 19:05 13.7 12.3 9.5 07:50 46.0
26/07 19:04 13.7 12.3 9.5 07:50 48.0
26/07 19:03 13.6 12.2 9.4 07:50 48.0
26/07 19:02 13.7 12.3 9.5 07:50 50.0
26/07 19:01 13.6 12.3 9.6 07:50 52.0
26/07 19:00 13.6 12.3 9.6 07:50 56.0
26/07 18:59 13.6 12.3 9.6 07:50 58.0
26/07 18:58 13.7 12.4 9.7 07:50 62.0
26/07 18:57 13.6 12.3 9.6 07:50 68.0
26/07 18:56 13.7 12.4 9.5 07:50 76.0
26/07 18:55 13.7 12.5 9.7 07:50 78.0
26/07 18:54 13.6 12.4 9.6 07:50 88.0
26/07 18:53 13.6 12.4 9.4 07:50 80.0
26/07 18:52 13.7 12.5 9.7 07:50 68.0
26/07 18:51 13.7 12.6 9.7 07:50 72.0
26/07 18:50 13.7 12.6 9.7 07:50 64.0
26/07 18:49 13.7 12.5 9.5 07:50 38.0
26/07 18:48 13.7 12.6 9.5 07:50 36.0
26/07 18:47 13.8 12.7 9.8 07:50 40.0
26/07 18:46 13.7 12.6 9.7 07:50 52.0
26/07 18:45 13.7 12.5 9.7 07:50 68.0
26/07 18:44 13.7 12.6 9.7 07:50 90.0
26/07 18:43 13.7 12.6 9.7 07:50 114.0
26/07 18:42 13.7 12.6 9.9 07:50 126.0
26/07 18:41 13.6 12.4 9.6 07:49 114.0
26/07 18:40 13.6 12.4 9.6 07:48 50.0
26/07 18:39 13.6 12.4 9.6 07:48 40.0
26/07 18:38 13.6 12.5 9.6 07:48 38.0
26/07 18:37 13.6 12.5 9.8 07:48 40.0
26/07 18:36 13.6 12.6 9.8 07:48 42.0
26/07 18:35 13.6 12.5 9.8 07:48 44.0
26/07 18:34 13.6 12.6 9.8 07:48 48.0
26/07 18:33 13.6 12.6 9.8 07:48 52.0
26/07 18:32 13.6 12.5 9.8 07:48 54.0
26/07 18:31 13.6 12.5 10 07:48 54.0
26/07 18:30 13.6 12.5 9.8 07:48 54.0
26/07 18:29 13.6 12.5 10 07:48 50.0
26/07 18:28 13.6 12.4 10 07:48 46.0
26/07 18:27 13.7 12.5 10.1 07:48 40.0
26/07 18:26 13.7 12.5 10.3 07:48 36.0
26/07 18:25 13.7 12.5 10.1 07:48 32.0
26/07 18:24 13.7 12.4 9.9 07:48 30.0
26/07 18:23 13.7 12.5 10.1 07:48 28.0
26/07 18:22 13.8 12.6 10 07:48 28.0
26/07 18:21 13.8 12.6 10 07:48 28.0
26/07 18:20 13.8 12.6 10 07:48 28.0
26/07 18:19 13.8 12.6 10 07:48 28.0
26/07 18:18 13.8 12.6 10 07:48 30.0
26/07 18:17 13.7 12.5 9.9 07:48 26.0
26/07 18:16 13.7 12.5 9.9 07:48 24.0
26/07 18:15 13.6 12.4 9.8 07:48 22.0
26/07 18:14 13.7 12.5 10.1 07:48 22.0
26/07 18:13 13.7 12.5 10.1 07:48 22.0
26/07 18:12 13.6 12.4 10 07:48 22.0
26/07 18:11 13.6 12.4 10 07:48 22.0
26/07 18:10 13.6 12.4 10.2 07:48 22.0
26/07 18:09 13.6 12.4 10.2 07:48 22.0
26/07 18:08 13.6 12.4 10 07:48 24.0
26/07 18:07 13.7 12.7 10.1 07:48 26.0
26/07 18:06 13.8 12.8 10.2 07:48 28.0
26/07 18:05 13.8 12.9 10 07:48 28.0
26/07 18:04 13.9 13.1 10.1 07:48 22.0
26/07 18:03 14.0 13.2 10.2 07:48 12.0
26/07 18:02 14.0 13.2 10 07:48 10.0
26/07 18:01 14.1 13.4 10.1 07:48 8.0
26/07 18:00 14.2 13.5 10.2 07:48 8.0
26/07 17:59 14.2 13.4 10.2 07:48 8.0
26/07 17:58 14.2 13.4 10.2 07:48 8.0
26/07 17:57 14.3 13.4 10.3 07:48 8.0
26/07 17:56 14.4 13.5 10.4 07:48 8.0
26/07 17:55 14.4 13.4 10.2 07:48 10.0
26/07 17:54 14.5 13.5 10.5 07:48 12.0
26/07 17:53 14.4 13.2 10.2 07:48 12.0
26/07 17:52 14.5 13.2 10.3 07:48 12.0
26/07 17:51 14.6 13.2 10.2 07:48 12.0
26/07 17:50 14.7 13.3 10.1 07:48 10.0
26/07 17:49 14.9 13.5 9.9 07:48 10.0
26/07 17:48 15.2 13.9 9.9 07:48 10.0
26/07 17:47 15.3 14 9.8 07:48 10.0
26/07 17:46 15.5 14.3 9.6 07:48 8.0
26/07 17:45 15.9 14.8 9.7 07:48 8.0
26/07 17:44 16.1 15 9.9 07:48 8.0
26/07 17:43 16.3 15.3 9.7 07:48 6.0
26/07 17:42 16.9 16.1 9.3 07:48 6.0
26/07 17:41 17.6 17 9.2 07:48 6.0
26/07 17:40 18.1 17.8 8.6 07:48 6.0
26/07 17:39 18.2 18 7.5 07:48 8.0
26/07 17:38 18.2 18 7.2 07:48 14.0
26/07 17:37 18.3 18.1 7.3 07:48 20.0
26/07 17:36 18.2 18 7.2 07:48 26.0
26/07 17:35 18.3 18.2 7 07:48 30.0
26/07 17:34 18.4 18.3 7.1 07:48 32.0
26/07 17:33 18.5 18.5 7.2 07:48 32.0
26/07 17:32 18.6 18.7 7.3 07:48 32.0
26/07 17:31 18.6 18.8 7.9 07:48 32.0
26/07 17:30 18.6 18.8 8.2 07:48 32.0
26/07 17:29 18.6 18.8 7.9 07:48 42.0
26/07 17:28 18.6 18.8 7.9 07:48 54.0
26/07 17:27 18.7 18.9 8 07:48 124.0
26/07 17:26 18.9 19.2 7.9 07:47 142.0
26/07 17:24 18.8 19 7.8 07:46 168.0
26/07 17:23 18.8 19 7.8 07:45 116.0
26/07 17:22 18.8 18.9 8.1 07:45 34.0
26/07 17:21 18.8 18.9 8.1 07:45 62.0
26/07 17:20 18.8 18.9 8.1 07:44 146.0
26/07 17:19 18.7 18.7 8 07:43 144.0
26/07 17:18 18.7 18.7 8 07:42 148.0
26/07 17:17 18.8 18.8 7.8 07:41 154.0
26/07 17:16 18.8 18.8 7.8 07:40 156.0
26/07 17:15 18.7 18.7 8 07:39 164.0
26/07 17:14 18.6 18.5 7.9 07:38 186.0
26/07 17:13 18.6 18.5 7.6 07:37 204.0
26/07 17:12 18.7 18.7 7.7 07:36 210.0
26/07 17:11 18.6 18.5 7.9 07:35 204.0
26/07 17:10 18.6 18.6 7.6 07:34 130.0
26/07 17:09 18.6 18.5 7.6 07:34 130.0
26/07 17:08 18.6 18.5 7.6 07:34 90.0
26/07 17:07 18.7 18.7 7.7 07:33 98.0
26/07 17:06 18.9 18.9 7.6 07:33 96.0
26/07 17:05 18.9 18.9 7.9 07:33 72.0
26/07 17:04 19.0 19.1 8 07:33 64.0
26/07 17:03 19.0 19.1 8 07:33 60.0
26/07 17:02 19.0 19.1 7.7 07:33 56.0
26/07 17:01 19.0 19.1 7.4 07:33 48.0
26/07 17:00 19.0 19.1 7.4 07:33 40.0
26/07 16:59 19.1 19.2 7.1 07:33 42.0
26/07 16:58 19.2 19.3 7.2 07:33 50.0
26/07 16:57 19.3 19.4 7.3 07:33 54.0
26/07 16:56 19.3 19.4 7 07:33 60.0
26/07 16:55 19.4 19.6 7.1 07:33 72.0
26/07 16:54 19.4 19.6 7.1 07:33 86.0
26/07 16:53 19.4 19.6 7.1 07:33 94.0
26/07 16:52 19.3 19.6 7 07:33 150.0
26/07 16:51 19.3 19.5 7 07:32 150.0
26/07 16:50 19.3 19.5 7 07:32 98.0
26/07 16:49 19.3 19.6 7 07:32 96.0
26/07 16:48 19.3 19.6 7 07:32 100.0
26/07 16:47 19.4 19.8 6.8 07:32 194.0
26/07 16:46 19.4 19.8 7.1 07:31 156.0
26/07 16:45 19.4 19.8 7.4 07:30 216.0
26/07 16:44 19.4 19.8 8.1 07:29 164.0
26/07 16:43 19.3 19.7 7.6 07:28 204.0
26/07 16:42 19.2 19.6 7.6 07:27 194.0
26/07 16:41 19.2 19.6 7.2 07:27 230.0
26/07 16:40 19.2 19.5 7.6 07:26 148.0
26/07 16:39 19.1 19.4 7.8 07:25 80.0
26/07 16:38 19.0 19.3 7.7 07:25 90.0
26/07 16:37 19.0 19.3 7.7 07:25 58.0
26/07 16:36 19.1 19.4 8.1 07:25 44.0
26/07 16:35 19.2 19.6 7.9 07:25 80.0
26/07 16:34 19.2 19.6 7.9 07:25 132.0
26/07 16:33 19.3 19.7 8 07:24 190.0
26/07 16:32 19.3 19.7 8.3 07:23 114.0
26/07 16:31 19.3 19.7 8.6 07:23 158.0
26/07 16:30 19.3 19.7 8.3 07:22 194.0
26/07 16:29 19.4 19.8 8.7 07:21 194.0
26/07 16:28 19.4 19.8 8.7 07:20 194.0
26/07 16:27 19.4 19.8 8.7 07:19 192.0
26/07 16:26 19.3 19.7 8.6 07:18 192.0
26/07 16:25 19.2 19.5 8.8 07:17 194.0
26/07 16:24 19.2 19.5 8.5 07:16 196.0
26/07 16:23 19.1 19.4 8.7 07:15 198.0
26/07 16:22 19.0 19.2 8.9 07:14 198.0
26/07 16:21 18.9 19.1 8.8 07:13 200.0
26/07 16:20 18.9 19.1 8.8 07:12 200.0
26/07 16:19 18.9 19.1 8.5 07:11 204.0
26/07 16:18 18.9 19.1 8.5 07:10 206.0
26/07 16:17 18.9 19.1 8.8 07:09 216.0
26/07 16:16 18.8 19 8.4 07:08 238.0
26/07 16:15 18.8 19 8.4 07:07 256.0
26/07 16:14 18.7 18.9 8.3 07:06 226.0
26/07 16:13 18.7 18.9 8.6 07:05 74.0
26/07 16:12 18.7 18.9 8.3 07:05 66.0
26/07 16:11 18.8 19.1 8.4 07:05 66.0
26/07 16:10 18.8 19.1 8.4 07:05 64.0
26/07 16:09 18.7 19 8.3 07:05 62.0
26/07 16:08 18.8 19 8.1 07:05 62.0
26/07 16:07 18.8 19.1 8.1 07:05 70.0
26/07 16:06 18.8 19.1 8.1 07:05 82.0
26/07 16:05 18.8 19.1 8.1 07:05 84.0
26/07 16:04 18.8 19.1 8.1 07:05 68.0
26/07 16:03 18.9 19.2 7.9 07:05 56.0
26/07 16:02 19.0 19.3 8 07:05 54.0
26/07 16:01 18.9 19.2 8.2 07:05 58.0
26/07 16:00 18.9 19.2 8.2 07:05 58.0
26/07 15:59 18.9 19.2 8.2 07:05 70.0
26/07 15:58 19.0 19.3 8.3 07:05 82.0
26/07 15:57 19.0 19.3 8.3 07:05 80.0
26/07 15:56 19.0 19.2 8.3 07:05 128.0
26/07 15:55 19.0 19.2 8.3 07:04 186.0
26/07 15:54 18.9 19.1 8.2 07:04 146.0
26/07 15:53 18.9 19.1 8.2 07:03 148.0
26/07 15:52 18.9 19.1 8.5 07:03 178.0
26/07 15:51 18.9 19.1 8.5 07:02 138.0
26/07 15:50 18.8 18.9 8.7 07:01 242.0
26/07 15:49 18.6 18.7 8.8 07:00 256.0
26/07 15:48 18.5 18.5 8.4 06:59 252.0
26/07 15:47 18.4 18.4 8.3 06:58 252.0
26/07 15:46 18.5 18.5 8.4 06:57 252.0
26/07 15:45 18.5 18.5 8.4 06:56 218.0
26/07 15:44 18.5 18.5 8.7 06:55 60.0
26/07 15:43 18.5 18.5 8.4 06:55 86.0
26/07 15:42 18.5 18.5 8.7 06:55 178.0
26/07 15:41 18.4 18.4 8.3 06:55 240.0
26/07 15:40 18.5 18.5 8.7 06:54 180.0
26/07 15:39 18.6 18.6 8.8 06:53 214.0
26/07 15:38 18.5 18.4 9 06:52 156.0
26/07 15:37 18.4 18.3 8.6 06:51 160.0
26/07 15:36 18.3 18.2 8.5 06:51 224.0
26/07 15:35 18.2 18 9 06:50 152.0
26/07 15:34 18.2 18 8.7 06:49 260.0
26/07 15:33 18.2 18 9 06:48 250.0
26/07 15:32 18.1 17.9 8.9 06:47 274.0
26/07 15:31 18.1 17.9 8.9 06:46 280.0
26/07 15:30 18.1 17.9 8.9 06:45 298.0
26/07 15:29 18.1 17.9 8.9 06:44 324.0
26/07 15:28 18.1 17.9 8.9 06:43 240.0
26/07 15:27 18.1 17.9 8.6 06:42 166.0
26/07 15:26 18.2 18 8.7 06:41 138.0
26/07 15:25 18.3 18.2 8.8 06:40 128.0
26/07 15:24 18.4 18.3 8.6 06:39 136.0
26/07 15:23 18.4 18.3 8.3 06:38 164.0
26/07 15:22 18.4 18.3 8.3 06:37 176.0
26/07 15:21 18.3 18.1 8.2 06:36 182.0
26/07 15:20 18.3 18.1 8.2 06:35 206.0
26/07 15:19 18.3 18.2 8.5 06:34 268.0
26/07 15:18 18.3 18.2 8.2 06:33 120.0
26/07 15:17 18.4 18.3 8 06:33 108.0
26/07 15:16 18.5 18.4 7.8 06:33 128.0
26/07 15:15 18.6 18.5 7.9 06:32 138.0
26/07 15:14 18.7 18.6 8.3 06:31 144.0
26/07 15:13 18.9 18.9 7.9 06:31 112.0
26/07 15:12 18.9 18.9 7.9 06:31 118.0
26/07 15:11 19.0 19 7.7 06:30 142.0
26/07 15:10 19.1 19.1 7.5 06:30 148.0
26/07 15:09 19.1 19.1 7.5 06:29 146.0
26/07 15:08 19.0 19 7.1 06:29 114.0
26/07 15:07 19.1 19.1 7.1 06:29 126.0
26/07 15:06 19.2 19.3 6.9 06:28 240.0
26/07 15:05 19.3 19.4 7 06:27 140.0
26/07 15:04 19.4 19.6 7.1 06:26 128.0
26/07 15:03 19.4 19.5 7.1 06:25 120.0
26/07 15:02 19.3 19.4 7.3 06:24 152.0
26/07 15:01 19.3 19.3 7.3 06:23 274.0
26/07 15:00 19.2 19.2 6.9 06:22 284.0
26/07 14:59 19.2 19.2 7.2 06:21 356.0
26/07 14:58 19.1 19.1 7.1 06:20 360.0
26/07 14:57 18.9 18.8 7 06:19 262.0
26/07 14:56 18.8 18.7 6.9 06:18 134.0
26/07 14:55 18.8 18.7 6.9 06:17 136.0
26/07 14:54 18.8 18.7 6.6 06:16 94.0
26/07 14:53 18.9 18.8 6.6 06:16 92.0
26/07 14:52 19.0 18.9 6.7 06:16 94.0
26/07 14:51 19.1 19 6.5 06:16 94.0
26/07 14:50 19.2 19.2 6.3 06:16 96.0
26/07 14:49 19.2 19.2 6.6 06:16 106.0
26/07 14:48 19.2 19.2 6.6 06:16 156.0
26/07 14:47 19.2 19.2 6.6 06:15 110.0
26/07 14:46 19.2 19.2 6.3 06:15 110.0
26/07 14:45 19.2 19.2 6.6 06:15 118.0
26/07 14:44 19.1 19.1 6.5 06:15 140.0
26/07 14:43 19.1 19.1 6.2 06:14 288.0
26/07 14:42 19.1 19.1 6.2 06:13 122.0
26/07 14:41 19.1 19.1 5.8 06:12 114.0
26/07 14:40 19.1 19.1 6.5 06:12 172.0
26/07 14:39 18.9 18.9 6.6 06:11 114.0
26/07 14:38 18.9 18.9 6.6 06:11 118.0
26/07 14:37 19.0 19 6.7 06:11 128.0
26/07 14:36 18.9 18.8 6.6 06:10 144.0
26/07 14:35 18.9 18.8 6.6 06:09 150.0
26/07 14:34 18.9 18.8 6.3 06:08 332.0
26/07 14:33 18.8 18.6 6.2 06:07 216.0
26/07 14:32 18.8 18.6 6.6 06:06 204.0
26/07 14:31 18.8 18.6 6.6 06:05 236.0
26/07 14:30 18.9 18.7 6.3 06:04 166.0
26/07 14:29 19.0 18.8 6.7 06:03 256.0
26/07 14:28 19.0 18.8 6.4 06:02 246.0



    Load Time 0.075786 seconds